Погода в Дивинополисе

Бразилия     20°08′20″S   44°53′13″W
темп.,
°C
ветер,
м/с
пор.,
м/с
влажн.,
%
обл.,
%
осадки,
мм/ч
давл.,
гПа
погр.,
м
27 февраля, сб
сб2700:00+18вюв1397100 1.0 1015169
03:00+18всв2599100 3.4 1014294
06:00+18всв3799100 5.1 1015401
09:00+19в2697100 5.9 1016362
12:00+20всв2395100 2.3 1016311
15:00+20в2494100 6.6 1014301
18:00+19ююв1294100 0.8 101431
21:00+17ююв1192100 0.8 101523
28 февраля, вс
вс2800:00+17ююв129679 0.0 101523
03:00+16ююв119656 0.0 101423
06:00+16ю119598 0.0 101523
09:00+21св368371 0.0 1016789
12:00+22ссв358096 0.0 1015541
15:00+25св467068 0.0 10121360
18:00+22ссв23820 0.0 101141
21:00+19в129117 0.3 101423
1 марта, пн
пн100:00+17юв229554 0.1 101525
03:00+16юв129547 0.1 101423
06:00+16вюв129597 0.0 101523
09:00+21всв358699 0.0 1016587
12:00+24всв3473100 0.1 10151062
15:00+25всв337197 0.4 10121130
18:00+22св228890 1.1 101226
21:00+19вюв129191 1.3 101423
2 марта, вт
вт200:00+18в1293100 0.0 101538
03:00+17св229493 0.0 101530
06:00+16всв129585 0.0 101623
09:00+21св248791 0.0 1018568
12:00+25св356870 0.0 10171251
15:00+25св356660 0.0 10141422
18:00+22ссв238123 0.0 101336
21:00+18в118912 0.0 101623
3 марта, ср
ср300:00+17в009041 0.0 101723
03:00+16юв019271 0.0 101723
06:00+16вюв119483 0.0 101823
09:00+22ссв258480 0.0 1019470
12:00+26с457183 0.3 10171125
15:00+26с347157 0.9 10141177
18:00+22с118616 2.3 101423
21:00+19ююв119030 3.3 101723